WetterOnline ( https://www.wetteronline.de )

Wetter aktuell Waibstadt

Aktuelles Wetter: Waibstadt (237m)

6-stündlich | Neueste Meldungen
Ortszeit Temperatur Wetter
Do, 29.09. 2:00 6.6° C leicht bewölkt
Mi, 28.09. 20:00 10.0° C wolkig
Mi, 28.09. 14:00 10.8° C Regen
Mi, 28.09. 8:00 8.6° C bewölkt
Mi, 28.09. 2:00 8.3° C leichter Regen
Di, 27.09. 20:00 8.6° C leicht bewölkt
Di, 27.09. 14:00 11.6° C bewölkt
Di, 27.09. 8:00 9.0° C leichter Regen
Ortszeit Temperatur Wetter
Do, 29.09. 5:30 5.4° C bewölkt
Do, 29.09. 5:20 5.4° C bewölkt
Do, 29.09. 5:10 5.2° C bewölkt
Do, 29.09. 5:00 5.4° C Nebel
Do, 29.09. 4:50 5.4° C bewölkt
Do, 29.09. 4:40 5.4° C Dunst
Do, 29.09. 4:30 5.1° C Nebel
Do, 29.09. 4:00 5.4° C Nebel
Do, 29.09. 3:30 5.4° C Nebel
Do, 29.09. 3:00 5.9° C wolkenlos
Do, 29.09. 2:30 6.3° C fast wolkenlos
Ortszeit Relative Feuchte Sichtweite
Do, 29.09. 2:00 97% 15 km
Mi, 28.09. 20:00 79% 50 km
Mi, 28.09. 14:00 76% 9 km
Mi, 28.09. 8:00 96% 45 km
Mi, 28.09. 2:00 90% 23 km
Di, 27.09. 20:00 81% >70 km
Di, 27.09. 14:00 87% 60 km
Di, 27.09. 8:00 96% 20 km
Ortszeit Relative Feuchte Sichtweite
Do, 29.09. 5:30 98% 11 km
Do, 29.09. 5:20 98% -
Do, 29.09. 5:10 97% -
Do, 29.09. 5:00 98% 11 km
Do, 29.09. 4:50 98% -
Do, 29.09. 4:40 99% -
Do, 29.09. 4:30 98% 0.9 km
Do, 29.09. 4:00 98% 8 km
Do, 29.09. 3:30 98% 0.5 km
Do, 29.09. 3:00 98% 1.9 km
Do, 29.09. 2:30 98% 11 km
Ortszeit Niederschlagsmenge Niederschlagsart
Do, 29.09. 2:00 0.0 l/m2 in 6 Std. -
Mi, 28.09. 20:00 0.5 l/m2 in 12 Std. Regen
Mi, 28.09. 14:00 0.1 l/m2 in 6 Std. Regen
Mi, 28.09. 8:00 9 l/m2 in 12 Std. Regen
Mi, 28.09. 2:00 0.5 l/m2 in 6 Std. Regen
Di, 27.09. 20:00 7 l/m2 in 12 Std. Regen
Di, 27.09. 14:00 7 l/m2 in 6 Std. Regen
Di, 27.09. 8:00 9 l/m2 in 12 Std. Regen
Ortszeit Niederschlagsmenge Niederschlagsart
Do, 29.09. 5:30 0.0 l/m2 in 1 Std. -
Do, 29.09. 5:20 keine Meldung -
Do, 29.09. 5:10 keine Meldung -
Do, 29.09. 5:00 0.0 l/m2 in 1 Std. -
Do, 29.09. 4:50 keine Meldung -
Do, 29.09. 4:40 keine Meldung -
Do, 29.09. 4:30 0.0 l/m2 in 1 Std. -
Do, 29.09. 4:00 0.0 l/m2 in 1 Std. -
Do, 29.09. 3:30 0.0 l/m2 in 1 Std. -
Do, 29.09. 3:00 0.0 l/m2 in 1 Std. -
Do, 29.09. 2:30 0.0 l/m2 in 1 Std. -
Ortszeit Stärke Spitze Richtung
km/h Bft. km/h Grad Sektor
Do, 29.09. 2:00 2 1 20 150° SO
Mi, 28.09. 20:00 11 2 32 240° SW
Mi, 28.09. 14:00 13 3 24 280° W
Mi, 28.09. 8:00 11 2 25 260° W
Mi, 28.09. 2:00 11 2 40 180° S
Di, 27.09. 20:00 17 3 46 260° W
Di, 27.09. 14:00 11 2 36 260° W
Di, 27.09. 8:00 22 4 47 250° W
Ortszeit Stärke Spitze Richtung
km/h Bft. km/h Grad Sektor
Do, 29.09. 5:30 4 1 4 120° SO
Do, 29.09. 5:20 4 1 - 120° SO
Do, 29.09. 5:10 4 1 - 60° NO
Do, 29.09. 5:00 4 1 7 110° O
Do, 29.09. 4:50 4 1 - 110° O
Do, 29.09. 4:40 4 1 - 170° S
Do, 29.09. 4:30 4 1 7 90° O
Do, 29.09. 4:00 4 1 7 100° O
Do, 29.09. 3:30 4 1 7 90° O
Do, 29.09. 3:00 4 1 7 100° O
Do, 29.09. 2:30 4 1 4 40° NO
Ortszeit Untergrenze Bedeckung Gattung
total tief tief mittel hoch
Do, 29.09. 2:00 2100 m 3/8 3/8 - - -
Mi, 28.09. 20:00 1320 m 5/8 5/8 - - -
Mi, 28.09. 14:00 870 m 7/8 7/8 - - -
Mi, 28.09. 8:00 1470 m 7/8 7/8 - - -
Mi, 28.09. 2:00 810 m 8/8 8/8 - - -
Di, 27.09. 20:00 1350 m 3/8 1/8 - - -
Di, 27.09. 14:00 1050 m 8/8 5/8 - - -
Di, 27.09. 8:00 240 m 7/8 7/8 - - -
Ortszeit Bedeckungsgrad in Achtel und Wolkenuntergrenze
Do, 29.09. 5:30 4(300m) 7(2400m)
Do, 29.09. 5:20 4(300m) 7(2400m)
Do, 29.09. 5:10 7
Do, 29.09. 5:00 7(2400m)
Do, 29.09. 4:50 7(2400m)
Do, 29.09. 4:40 7
Do, 29.09. 4:30 7(2400m)
Do, 29.09. 4:00 1(330m) 3(2400m)
Do, 29.09. 3:30 3(<30m) 6(2400m)
Do, 29.09. 3:00 keine Wolken
Do, 29.09. 2:30 1(300m)
Ortszeit Luftdruck NN (hPa) Tendenz (hPa in 3 Std.)
Do, 29.09. 2:00 1002 - 0,1
Mi, 28.09. 20:00 1001 + 1,1
Mi, 28.09. 14:00 999 + 0,6
Mi, 28.09. 8:00 997 + 0,1
Mi, 28.09. 2:00 1000 - 2,6
Di, 27.09. 20:00 1002 + 1,0
Di, 27.09. 14:00 1002 - 0,2
Di, 27.09. 8:00 1000 + 1,7
Ortszeit Luftdruck NN (hPa) Tendenz (hPa in 3 Std.)
Do, 29.09. 5:30 1002 - 0,1
Do, 29.09. 5:20 1002 keine Meldung
Do, 29.09. 5:10 1002 keine Meldung
Do, 29.09. 5:00 1002 0,0
Do, 29.09. 4:50 1002 keine Meldung
Do, 29.09. 4:40 1002 keine Meldung
Do, 29.09. 4:30 1002 - 0,1
Do, 29.09. 4:00 1002 - 0,2
Do, 29.09. 3:30 1002 - 0,2
Do, 29.09. 3:00 1002 - 0,3
Do, 29.09. 2:30 1002 0,0
Ortszeit Schneehöhe (cm)
Do, 29.09. 2:00 0
Mi, 28.09. 20:00 0
Mi, 28.09. 14:00 0
Mi, 28.09. 8:00 0
Mi, 28.09. 2:00 0
Di, 27.09. 20:00 0
Di, 27.09. 14:00 0
Di, 27.09. 8:00 0
Ortszeit Schneehöhe (cm)
Do, 29.09. 5:30 0
Do, 29.09. 5:20 0
Do, 29.09. 5:10 0
Do, 29.09. 5:00 0
Do, 29.09. 4:50 0
Do, 29.09. 4:40 0
Do, 29.09. 4:30 0
Do, 29.09. 4:00 0
Do, 29.09. 3:30 0
Do, 29.09. 3:00 0
Do, 29.09. 2:30 0
Link zu dieser Seite / Seite empfehlen

Das Wetter in ...